User: anonymous   Login
Location: Unspecified
(0.0000°N, 0.0000°E)
Time: 20:02:43
(UTC+00:00)
Language:

STARLINK-11246 [DTC] - Orbit

View from above orbital plane
View from above orbital plane
View from above satellite
View from above satellite

Ground track
Ground track

The orbit is defined by the following mean orbital elements,

1 60932U          26144.89199779 +.00000000 +00000-0 +76358-5 0 00003
2 60932  53.1593 325.3903 0001072 101.1756 258.9383 15.69708607    01
Epoch (UTC): 24 May 2026 21:24:28
Eccentricity: 0.0001072
inclination: 53.1593°
perigee height: 359 km
apogee height: 360 km
right ascension of ascending node: 325.3903°
argument of perigee: 101.1756°
revolutions per day: 15.69708607
mean anomaly at epoch: 258.9383°

The dashed part of the orbit path shows where the satellite is in the earth's shadow,  

DLR